Lid_Strength_Index
0 1 3 4 11 12 15 14 13 11 10 8 8 7 8 7 9 12 4 5 0 1 -0 -0 -1 -1 -1 -1 -1 -1 -1 -1 -2 -2 -1 -1 -1 -2 -2 -2 -1 -2 -2 -2 -2 -1 -1 -1 -1
2 2 3 7 13 17 16 13 12 10 9 8 8 8 7 9 5 6 6 4 0 0 2 0 -1 -1 -1 -1 -1 -1 -1 -1 -2 -2 -2 -1 -2 -2 -1 -1 -1 -2 -2 -1 -1 -1 -2 -1 -2
2 1 7 10 14 15 14 11 10 9 8 8 9 8 7 7 5 6 6 5 4 1 1 1 -1 -1 -1 -1 -1 -1 -1 -1 -1 -1 -2 -2 -2 -2 -1 -1 -2 -2 -1 -1 -1 -1 -1 -1 -2
3 5 8 12 14 13 12 12 10 10 8 7 8 9 7 5 5 4 5 5 5 6 4 1 -0 -1 -1 -1 -1 -1 -1 -1 -1 -1 -2 -2 -2 -2 -2 -2 -1 -2 -1 -1 -1 -1 -1 -1 -2
5 8 13 15 14 12 12 9 9 10 10 10 9 10 9 6 4 4 5 5 6 6 5 3 -1 0 -0 -1 -1 -1 -1 -1 -1 -1 -2 -2 -2 -1 -2 -2 -1 -2 -1 -1 -1 -1 -1 -1 -1
10 10 15 16 13 12 13 12 11 11 11 11 10 10 9 6 5 5 5 6 6 6 5 5 -0 -1 -0 -0 -1 -1 -1 -1 -1 -1 -1 -2 -2 -2 -1 -2 -1 -1 -1 -1 -1 -1 -1 -1 -1
12 14 16 14 14 13 12 11 12 12 12 11 9 11 10 8 5 5 5 5 5 5 5 5 5 2 -1 -0 -0 -1 -1 -1 -1 -1 -1 -1 -1 -1 -1 -1 -1 -1 -1 -2 -2 -1 -1 -1 -1
10 12 15 14 15 14 11 11 10 11 12 9 9 11 11 8 6 5 5 5 5 4 5 6 6 5 2 1 0 -0 -0 -0 -1 -1 -0 0 0 -0 -1 -1 -1 -1 -1 -2 -2 -2 -1 -1 -2
8 14 16 14 13 14 11 11 9 8 10 10 9 9 8 6 4 5 5 5 5 4 4 5 5 6 5 2 -1 -0 0 0 0 0 1 1 -0 -0 0 0 0 -1 -1 -1 -2 -2 -2 -1 -1
11 14 13 11 11 12 10 10 10 10 10 10 9 7 6 5 5 6 6 6 5 5 4 4 4 5 6 4 1 -0 -1 -0 -0 -0 0 0 -0 -0 -0 1 1 -1 -1 -1 -1 -1 -1 -1 0
11 13 10 9 9 8 10 10 9 10 11 9 10 8 7 6 6 6 5 5 5 4 4 3 4 4 5 5 4 0 0 -0 -0 0 0 0 -0 -0 -0 -0 -0 -0 1 -0 -0 -0 -0 1 0
13 9 9 9 8 9 10 9 10 10 10 8 7 7 7 6 6 6 5 5 4 4 3 3 2 3 3 4 5 4 0 0 0 -0 0 0 0 0 0 0 -0 0 0 0 0 0 0 1 1
11 10 8 8 9 9 9 10 10 10 8 7 6 6 7 6 6 6 5 4 4 4 3 3 3 3 3 3 4 4 2 0 -0 0 -0 0 0 1 0 0 -0 0 0 -0 0 0 0 2 2
9 9 9 8 8 8 9 9 9 8 7 7 7 7 6 7 6 6 5 5 5 4 4 3 3 3 3 3 4 4 3 0 0 0 -0 -0 0 0 0 0 0 1 0 1 0 0 0 1 2
8 10 9 8 7 8 8 11 10 8 7 7 7 7 7 6 6 6 5 5 5 5 4 4 3 2 3 3 3 3 3 1 0 0 0 0 0 0 0 0 0 1 1 1 1 1 1 1 2
10 10 14 9 8 8 9 14 9 8 8 9 8 8 7 7 6 6 6 6 5 5 5 4 3 3 3 3 3 3 3 2 0 0 0 0 0 0 0 0 1 0 1 1 1 1 2 2 2
11 16 14 12 8 8 10 13 9 8 8 10 10 9 8 7 7 6 6 5 5 5 5 5 4 4 4 3 3 3 3 2 1 -0 0 0 0 0 0 0 1 1 2 2 2 2 2 3 3
15 15 13 13 9 9 10 11 9 9 9 10 11 10 8 7 7 5 5 5 4 4 4 4 3 2 3 3 3 3 4 3 1 0 0 0 0 0 0 0 1 1 2 2 3 3 3 3 3
11 12 13 12 8 10 11 11 10 10 10 11 11 9 9 8 6 6 5 5 5 4 4 4 3 2 3 3 2 2 3 3 2 0 0 0 0 0 0 0 1 1 2 2 3 4 4 4 4
10 12 13 11 9 11 12 13 11 10 11 10 10 10 9 8 7 6 5 6 6 5 6 5 4 3 1 2 2 2 2 3 2 0 0 0 0 0 0 0 1 1 2 3 3 4 5 4 3
11 13 13 13 10 11 13 15 13 11 10 9 9 9 9 8 8 7 6 7 7 7 6 6 5 3 2 2 2 2 3 2 2 1 1 0 0 0 0 0 1 1 2 4 4 4 4 5 5
14 10 11 12 13 17 13 19 14 13 11 10 9 9 9 9 8 8 7 8 7 7 6 6 6 4 3 1 1 2 3 3 2 2 1 1 0 0 0 0 1 1 2 3 4 4 4 4 5
12 9 11 12 14 16 15 18 16 11 12 11 10 9 9 8 8 8 8 8 7 6 6 6 5 4 2 2 2 3 3 3 2 2 2 1 1 0 0 0 1 1 2 2 3 4 4 4 4
9 11 12 12 15 18 16 17 17 14 12 12 10 10 9 9 8 8 7 7 7 7 6 5 5 4 3 3 2 3 4 4 3 3 2 2 1 1 1 0 1 1 1 2 3 4 4 4 4
10 13 19 19 20 21 14 16 15 12 10 10 10 11 10 9 8 9 9 8 7 7 7 6 6 5 5 3 3 3 3 3 3 2 2 2 2 2 1 1 1 1 1 1 2 3 4 4 4
14 13 18 26 22 20 14 18 16 11 10 9 9 10 10 9 9 9 8 8 8 8 7 6 6 6 5 4 3 3 3 2 2 2 2 2 2 1 1 1 1 1 1 1 1 2 3 3 3
14 17 12 16 18 20 18 15 13 11 11 11 11 10 11 11 9 10 9 8 8 8 7 7 6 5 4 2 2 3 3 3 2 2 2 2 2 1 1 1 1 4 1 1 1 1 2 2 3
14 13 19 16 23 22 19 18 18 14 13 12 12 12 11 10 10 10 9 9 8 8 8 7 6 5 4 3 2 2 2 2 2 1 2 2 1 1 1 1 1 1 2 1 1 1 1 1 3
16 17 16 18 18 24 26 20 12 12 12 12 12 12 11 11 10 10 10 9 9 9 8 7 7 6 5 4 4 3 2 3 2 2 2 2 2 2 1 1 1 1 1 1 1 1 2 2 2
15 17 16 21 21 20 22 20 12 10 10 10 11 11 11 10 10 10 11 10 9 9 9 9 8 6 6 5 5 5 4 3 3 3 2 1 2 2 2 1 1 1 1 2 2 2 2 2 3